"Pseudo-MPEC" for P22pBkx

Created 2026 Sep 5 9:35:13 UT using Find_Orb

Click here for an explanation of pseudo-MPECs

 
 Astrometry: 
     P22pBkx 0C2026 09 04.35771101 10 42.818+02 11 41.21   ~953o 21.32gUNEOCPI41
     P22pBkx 0C2026 09 04.44077401 10 52.432+02 15 52.80   ~953o 21.37rUNEOCPI41
     P22pBkx*0C2026 09 04.49963001 11 00.485+02 18 57.35   ~94DZ 21.48wXNEOCPF52
     P22pBkx 0C2026 09 04.51059401 11 01.716+02 19 31.00   ~94DZ 21.43wXNEOCPF52
     P22pBkx 0C2026 09 04.52164701 11 02.985+02 20 04.48   ~94DZ 21.18wXNEOCPF52
     P22pBkx 0C2026 09 04.56560401 11 07.996+02 22 17.96   ~94Mo 21.12GVNEOCPF51
     P22pBkx 0C2026 09 04.56625201 11 08.088+02 22 20.02   ~94Mo 21.13GVNEOCPF51
     P22pBkx |C2026 09 05.26325001 12 37.250+02 58 22.80   ~9575 21.2 GVNEOCP807
     P22pBkx |C2026 09 05.26871001 12 37.820+02 58 39.50   ~9575 21.8 GVNEOCP807
     P22pBkx |C2026 09 05.27417001 12 38.480+02 58 56.40   ~9575 21.6 GVNEOCP807
     P22pBkx KC2026 09 05.27589101 12 39.15 +02 58 25.3    ~9575 21.1 GVNEOCPH21
     P22pBkx KC2026 09 05.27889701 12 39.51 +02 58 35.0    ~9575 21.2 GVNEOCPH21
     P22pBkx KC2026 09 05.28619001 12 40.33 +02 58 56.8    ~9575 21.0 GVNEOCPH21
     P22pBkx !C2026 09 05.38056701 12 52.226+03 03 50.76   ~959Z 21.5 GWNEOCP673
     P22pBkx !C2026 09 05.38572901 12 52.822+03 04 06.78   ~959Z 20.5 GWNEOCP673

Station data:
(673) Table Mountain Observatory, Wrightwood  (N34.381485 W117.682170)
   US/California.  Observers J. Chesley, J. Pittichova. Measurer W. M. Owen
   Jr. 0.61-m f/16 reflector + CCD.
(807) Cerro Tololo Observatory, La Serena  (S30.169133 W70.805900)  Chile.
   Observer R. Holmes. 0.61-m f/6.5 astrograph + CCD.
(F51) Pan-STARRS 1, Haleakala  (N20.707234 W156.255910)  US/Hawaii.
   Observers J. Herman, T. Lowe, P. Minguez, A. Schultz, I. Smith. Measurers
   K. Chambers, T. de Boer, J. Fairlamb, H. Gao, M. Huber, C.-C. Lin, E.
   Magnier, Y. Ramanjooloo, R. Wainscoat, R. Weryk. 1.8-m Ritchey-Chrétien +
   CCD.
(F52) Pan-STARRS 2, Haleakala  (N20.707382 W156.255910)  US/Hawaii.
   Observers J. Herman, T. Lowe, P. Minguez, A. Schultz, I. Smith. Measurers
   K. Chambers, T. de Boer, J. Fairlamb, H. Gao, M. Huber, C.-C. Lin, E.
   Magnier, Y. Ramanjooloo, R. Wainscoat, R. Weryk. 1.8-m Ritchey-Chrétien +
   CCD.
(H21) Astronomical Research Observatory, Westfield  (N39.483054 W87.968270)
   US/Illinois.  Observer R. Holmes. Measurers S. Foglia, L. Buzzi, T.
   Linder, R. Holmes. 0.40-m f/5.32 astrograph + CCD.
(I41) Palomar Mountain--ZTF  (N33.357336 W116.859780)  US/California.
   Observers B. T. Bolin, Z. T. F. Collaboration. Measurers B. T. Bolin,
   Z.-Y. Lin, F. J. Masci. 1.2-m f/2.4 Schmidt.

Orbital elements:  P22pBkx
   Perihelion 2026 Oct 4.459500 +/- 1.64 TT = 11:01:40.7 (JD 2461317.959500)
Epoch 2026 Sep  5.0 TT = JDT 2461288.5   Earth MOID: 0.1981   Ma: 0.0660
M 353.250516773 +/- 0.58            (J2000 ecliptic)             AutoNEOCP
n   0.229110586 +/- 0.00848         Peri.   20.934040 +/- 1.5
a   2.645082836 +/- 0.0652          Node   355.470091 +/- 0.07
e   0.54968521 +/- 0.00925          Incl.    9.326637 +/- 0.09
P   4.30189                H 22.51  G  0.15   U  9.5
q 1.191119902 +/- 0.00547    Q 4.099045771 +/- 0.125
From 15 observations 2026 Sept. 4-5 (24.7 hr); mean residual 0".27
Residuals in arcseconds: 
260904 I41  .46+  .01-    260904 F51  .22-  .01+    260905 H21  .09+  .36+    
260904 I41  .42+  .05+    260904 F51  .05+  .10+    260905 H21  .21+  .77+    
260904 F52  .19+  .26-    260905 807  .40+  .02-    260905 H21  .27-  .02+    
260904 F52  .15-  .10+    260905 807  .47-  .19-    260905 673  .12+  .33-    
260904 F52  .05-  .02+    260905 807  .01+  .17-    260905 673  .10+  .31-    

Ephemerides (geocentric):
Date (UTC) HH   RA             Dec           delta  r     elong  mag " sig PA
---- --------  ------------   ------------  ------ ------ -----  --- --------
2026 09 05 10  01 12 56.335   +03 05 59.67  .27050 1.2380 144.3 21.4 .077 127
2026 09 05 11  01 13 01.615   +03 08 08.83  .27034 1.2378 144.3 21.4 .081 123
2026 09 05 12  01 13 06.894   +03 10 18.11  .27018 1.2377 144.3 21.4 .085 121
2026 09 05 13  01 13 12.174   +03 12 27.52  .27002 1.2376 144.3 21.4 .090 118
2026 09 05 14  01 13 17.453   +03 14 37.05  .26986 1.2375 144.3 21.4 .094 115
2026 09 05 15  01 13 22.732   +03 16 46.69  .26970 1.2373 144.3 21.4 .100 113
2026 09 05 16  01 13 28.011   +03 18 56.46  .26954 1.2372 144.3 21.4 .105 111
2026 09 05 17  01 13 33.290   +03 21 06.34  .26939 1.2371 144.3 21.4 .111 110
2026 09 05 18  01 13 38.568   +03 23 16.35  .26923 1.2369 144.3 21.4 .118 108
2026 09 05 19  01 13 43.847   +03 25 26.48  .26907 1.2368 144.4 21.4 .124 107
2026 09 05 20  01 13 49.125   +03 27 36.72  .26891 1.2367 144.4 21.4 .131 105
2026 09 05 21  01 13 54.403   +03 29 47.09  .26876 1.2366 144.4 21.4 .138 104
2026 09 05 22  01 13 59.681   +03 31 57.57  .26860 1.2364 144.4 21.4 .146 103
2026 09 05 23  01 14 04.958   +03 34 08.18  .26844 1.2363 144.4 21.4 .153 102
2026 09 06 00  01 14 10.236   +03 36 18.90  .26829 1.2362 144.4 21.4 .161 101
2026 09 06 01  01 14 15.513   +03 38 29.75  .26813 1.2360 144.4 21.4 .169 101
2026 09 06 02  01 14 20.790   +03 40 40.71  .26798 1.2359 144.4 21.4 .178 100
2026 09 06 03  01 14 26.067   +03 42 51.79  .26782 1.2358 144.4 21.4 .187  99
2026 09 06 04  01 14 31.343   +03 45 02.99  .26766 1.2357 144.4 21.4 .196  99
2026 09 06 05  01 14 36.619   +03 47 14.31  .26751 1.2355 144.4 21.4 .205  98
2026 09 06 06  01 14 41.896   +03 49 25.75  .26736 1.2354 144.5 21.4 .214  98
2026 09 06 07  01 14 47.171   +03 51 37.31  .26720 1.2353 144.5 21.4 .224  98
2026 09 06 08  01 14 52.447   +03 53 48.99  .26705 1.2351 144.5 21.4 .234  97
2026 09 06 09  01 14 57.723   +03 56 00.78  .26689 1.2350 144.5 21.4 .244  97
2026 09 06 10  01 15 02.998   +03 58 12.70  .26674 1.2349 144.5 21.4 .254  97
2026 09 06 11  01 15 08.273   +04 00 24.73  .26659 1.2348 144.5 21.3 .265  96
2026 09 06 12  01 15 13.548   +04 02 36.88  .26643 1.2346 144.5 21.3 .276  96
2026 09 06 13  01 15 18.822   +04 04 49.15  .26628 1.2345 144.5 21.3 .287  96
2026 09 06 14  01 15 24.096   +04 07 01.53  .26613 1.2344 144.5 21.3 .298  96
2026 09 06 15  01 15 29.370   +04 09 14.04  .26598 1.2343 144.5 21.3 .310  96
2026 09 06 16  01 15 34.644   +04 11 26.66  .26582 1.2341 144.5 21.3 .321  96
2026 09 06 17  01 15 39.918   +04 13 39.40  .26567 1.2340 144.5 21.3 .333  96
2026 09 06 18  01 15 45.191   +04 15 52.25  .26552 1.2339 144.6 21.3 .345  96
2026 09 06 19  01 15 50.464   +04 18 05.23  .26537 1.2338 144.6 21.3 .358  95
2026 09 06 20  01 15 55.737   +04 20 18.32  .26522 1.2336 144.6 21.3 .370  95
2026 09 06 21  01 16 01.010   +04 22 31.53  .26507 1.2335 144.6 21.3 .383  95
2026 09 06 22  01 16 06.282   +04 24 44.85  .26492 1.2334 144.6 21.3 .396  95
2026 09 06 23  01 16 11.554   +04 26 58.30  .26477 1.2333 144.6 21.3 .410  95
2026 09 07 00  01 16 16.826   +04 29 11.85  .26462 1.2331 144.6 21.3 .423  95
2026 09 07 01  01 16 22.097   +04 31 25.53  .26447 1.2330 144.6 21.3 .437  95
2026 09 07 02  01 16 27.369   +04 33 39.32  .26432 1.2329 144.6 21.3 .451  95
2026 09 07 03  01 16 32.640   +04 35 53.23  .26417 1.2328 144.6 21.3 .465  95
2026 09 07 04  01 16 37.911   +04 38 07.26  .26402 1.2326 144.6 21.3 .480  95
2026 09 07 05  01 16 43.181   +04 40 21.40  .26387 1.2325 144.6 21.3 .494  95
2026 09 07 06  01 16 48.451   +04 42 35.66  .26372 1.2324 144.6 21.3 .509  95
2026 09 07 07  01 16 53.721   +04 44 50.03  .26358 1.2323 144.7 21.3 .524  95
2026 09 07 08  01 16 58.991   +04 47 04.52  .26343 1.2322 144.7 21.3 .540  95
2026 09 07 09  01 17 04.260   +04 49 19.12  .26328 1.2320 144.7 21.3 .555  95